[[{"header":{"parameterUnit":"m.s-1","parameterCategory":1,"la1":30.2991,"la2":30.254,"lo1":-89.0895,"lo2":-89.0444,"dy":0.0017,"dx":0.0017,"nx":28,"ny":28,"refTime":"2024-04-14T21:00:00:Z","depth":0,"parameterNumber":2,"parameterNumberName":"U-component_of_WINDS"},"data":[0,0,0,0,0,0,0,0,0,0,0,0,0,0,0,0,0,0,0,0,0,0,0,0,0,0,0,0,0,0,0,0,0,0,0,0,0,0,0,0,0,0,0,0,0,0,0,0,0,0,0,0,0,0,0,0,0,0,-1.7921,-1.792,0,-1.7817,-1.7816,-1.7814,-1.775,-1.775,-1.775,-1.7749,-1.764,-1.7637,-1.7635,0,0,0,0,0,0,0,0,0,0,0,0,0,-1.8062,-1.806,-1.7921,-1.792,-1.7918,-1.7817,-1.7816,-1.7814,-1.775,-1.775,-1.7749,-1.7749,-1.7641,-1.7638,-1.7635,0,0,0,0,0,0,0,0,0,0,0,0,0,-1.7984,-1.8059,-1.7921,-1.7874,-1.7869,-1.7817,-1.7816,-1.7814,-1.775,-1.775,-1.7749,-1.7749,-1.7642,-1.7638,-1.7634,-1.762,0,0,-1.7622,-1.7621,0,0,0,0,0,0,0,0,-1.7989,-1.7979,-1.7882,-1.7877,-1.7871,-1.7796,-1.7825,-1.7749,-1.775,-1.7795,-1.7749,-1.7749,-1.7692,-1.7684,-1.7666,-1.7615,-1.761,-1.7622,-1.762,-1.7618,-1.7617,0,0,0,0,0,0,0,-1.7994,-1.7983,-1.788,-1.7881,-1.7874,-1.7858,-1.7846,-1.7811,-1.7748,-1.7791,-1.7786,-1.7775,-1.7689,-1.767,-1.7663,-1.7609,-1.7622,-1.7619,-1.7616,-1.7615,-1.7542,-1.7542,0,0,0,0,0,0,-1.8007,-1.7988,-1.7883,-1.7876,-1.793,-1.7856,-1.7843,-1.7821,-1.7748,-1.7736,-1.7776,-1.7773,-1.7676,-1.7667,-1.7658,-1.7637,-1.7618,-1.7614,-1.7612,-1.7541,-1.7542,-1.7542,0,0,0,0,0,0,-1.801,-1.7998,-1.7887,-1.7931,-1.7915,-1.7854,-1.783,-1.7819,-1.7799,-1.7736,-1.7724,-1.7767,-1.7676,-1.7664,-1.763,-1.7632,-1.7613,-1.7609,-1.7541,-1.7542,-1.7542,-1.7594,0,0,0,0,0,0,-1.8015,-1.8,-1.7994,-1.7931,-1.7913,-1.7861,-1.783,-1.7817,-1.7793,-1.7788,-1.7725,-1.7714,-1.7674,-1.7637,-1.7627,-1.7627,-1.7606,-1.754,-1.7541,-1.7542,-1.7592,-1.7597,-1.76,0,0,0,0,0,-1.802,-1.8012,-1.7994,-1.7982,-1.7905,-1.7862,-1.7851,-1.7806,-1.7794,-1.7787,-1.7747,-1.7716,-1.7634,-1.7634,-1.7622,-1.7621,-1.754,-1.7541,-1.7542,-1.759,-1.7596,-1.76,0,0,0,0,0,0,-1.8076,-1.8003,-1.7982,-1.7954,-1.7915,-1.7851,-1.7841,-1.7813,-1.7776,-1.7773,-1.7718,-1.7704,-1.7676,-1.7645,-1.7646,-1.7604,-1.7584,-1.7582,-1.7624,-1.7629,-1.7633,-1.7641,-1.7603,0,0,0,0,0,-1.8085,-1.8057,-1.7995,-1.7976,-1.7957,-1.7903,-1.7882,-1.7851,-1.7808,-1.779,-1.7747,-1.7706,-1.7671,-1.7648,-1.7612,-1.7588,-1.7573,-1.7581,-1.7586,-1.759,-1.7588,-1.7573,-1.7576,-1.7545,-1.7545,-1.7545,0,0,-1.8104,-1.806,-1.8045,-1.7986,-1.7952,-1.7923,-1.7889,-1.786,-1.7838,-1.7786,-1.7751,-1.7719,-1.7669,-1.764,-1.7625,-1.7613,-1.7594,-1.7591,-1.7594,-1.7591,-1.7574,-1.7577,-1.758,-1.7546,-1.7546,-1.7546,0,0,-1.8122,-1.8087,-1.8067,-1.8034,-1.7983,-1.7948,-1.7943,-1.7884,-1.7861,-1.7826,-1.7786,-1.7759,-1.77,-1.7666,-1.7641,-1.7649,-1.7619,-1.7639,-1.766,-1.7645,-1.7648,-1.765,-1.7652,-1.7653,-1.7638,-1.7638,-1.7638,0,-1.8151,-1.8106,-1.8061,-1.8034,-1.8009,-1.7962,-1.7942,-1.7911,-1.7851,-1.7835,-1.7823,-1.7748,-1.7711,-1.7674,-1.7676,-1.7657,-1.765,-1.7644,-1.7651,-1.7653,-1.7654,-1.7655,-1.7656,-1.7641,-1.764,-1.764,-1.764,0,-1.8144,-1.8114,-1.8104,-1.8049,-1.8023,-1.7999,-1.795,-1.7929,-1.7901,-1.7866,-1.7832,-1.7786,-1.774,-1.7729,-1.7701,-1.7688,-1.7682,-1.7662,-1.764,-1.766,-1.766,-1.7661,-1.7644,-1.7644,-1.7643,-1.7642,0,0,-1.8193,-1.8114,-1.8111,-1.8085,-1.8026,-1.8002,-1.7977,-1.7933,-1.7916,-1.7877,-1.7854,-1.7806,-1.7787,-1.7758,-1.7726,-1.7714,-1.7723,-1.7695,-1.7693,-1.7701,-1.7705,-1.772,-1.7721,-1.7704,-1.7704,-1.7704,-1.7709,0,-1.8202,-1.8155,-1.8113,-1.8081,-1.8053,-1.8009,-1.7987,-1.7948,-1.7916,-1.7887,-1.7851,-1.7817,-1.7795,-1.7778,-1.7764,-1.7725,-1.7723,-1.7724,-1.7681,-1.768,-1.7693,-1.7722,-1.7737,-1.7744,-1.7709,-1.7709,-1.7709,0,-1.8205,-1.8169,-1.8134,-1.8079,-1.8066,-1.8047,-1.8004,-1.7977,-1.7932,-1.791,-1.788,-1.7846,-1.7817,-1.7801,-1.776,-1.7762,-1.7742,-1.772,-1.7719,-1.7712,-1.7694,-1.7714,-1.7745,-1.7746,-1.7709,-1.7709,-1.7709,0,-1.8244,-1.8186,-1.8158,-1.8137,-1.8072,-1.806,-1.8033,-1.7988,-1.7965,-1.7927,-1.7911,-1.7871,-1.7848,-1.7818,-1.7774,-1.7767,-1.7738,-1.7718,-1.7718,-1.7719,-1.7712,-1.7713,-1.7739,-1.7702,-1.7702,-1.7702,-1.7702,0,-1.8257,-1.8237,-1.8174,-1.8156,-1.8133,-1.8086,-1.8064,-1.8033,-1.7994,-1.7969,-1.7929,-1.7907,-1.7851,-1.7822,-1.7788,-1.776,-1.775,-1.773,-1.7721,-1.7733,-1.7735,-1.7718,-1.7716,-1.7702,-1.7702,-1.7702,-1.7702,0,-1.8295,-1.8252,-1.8218,-1.816,-1.8145,-1.8131,-1.8081,-1.8062,-1.8028,-1.7998,-1.7988,-1.7935,-1.7898,-1.7853,-1.7802,-1.7779,-1.7754,-1.774,-1.7769,-1.7763,-1.7765,-1.7766,-1.778,-1.778,-1.7745,-1.7745,-1.7745,0,-1.8306,-1.829,-1.8231,-1.8212,-1.8186,-1.8155,-1.8132,-1.8086,-1.8063,-1.8012,-1.7999,-1.796,-1.7927,-1.7871,-1.7827,-1.7788,-1.7773,-1.7781,-1.7767,-1.778,-1.7772,-1.7773,-1.7771,-1.7784,-1.7785,-1.7786,-1.7786,0,-1.8329,-1.8309,-1.8277,-1.8238,-1.8211,-1.8178,-1.8143,-1.8129,-1.8076,-1.8052,-1.8015,-1.7989,-1.7938,-1.79,-1.7856,-1.7826,-1.7797,-1.7791,-1.7789,-1.78,-1.7817,-1.7807,-1.7777,-1.7791,-1.779,-1.779,-1.7789,-1.7789,-1.8353,-1.8337,-1.8293,-1.8259,-1.8228,-1.8196,-1.8176,-1.814,-1.8109,-1.8064,-1.8039,-1.8003,-1.796,-1.7898,-1.787,-1.7841,-1.783,-1.7827,-1.7826,-1.7825,-1.7829,-1.7823,-1.7833,-1.7832,-1.7832,-1.7832,-1.7832,0,-1.8374,-1.8344,-1.8313,-1.8266,-1.8239,-1.8215,-1.8176,-1.8154,-1.8123,-1.8086,-1.8054,-1.8012,-1.7975,-1.793,-1.789,-1.7875,-1.7861,-1.7866,-1.7866,-1.786,-1.7841,-1.7847,-1.7879,-1.7879,-1.7879,-1.7879,-1.7879,-1.7879,-1.8381,-1.8353,-1.8328,-1.8283,-1.8253,-1.8218,-1.8198,-1.8168,-1.8138,-1.8093,-1.8063,-1.8034,-1.7993,-1.795,-1.7915,-1.7903,-1.7889,-1.7899,-1.7882,-1.7865,-1.7861,-1.7857,-1.7862,-1.7896,-1.7897,-1.7903,-1.7903,-1.7903]},{"header":{"parameterUnit":"m.s-1","parameterCategory":1,"la1":30.2991,"la2":30.254,"lo1":-89.0895,"lo2":-89.0444,"dy":0.0017,"dx":0.0017,"nx":28,"ny":28,"refTime":"2024-04-14T21:00:00:Z","depth":0,"parameterNumber":3,"parameterNumberName":"V-component_of_WINDS"},"data":[0,0,0,0,0,0,0,0,0,0,0,0,0,0,0,0,0,0,0,0,0,0,0,0,0,0,0,0,0,0,0,0,0,0,0,0,0,0,0,0,0,0,0,0,0,0,0,0,0,0,0,0,0,0,0,0,0,0,3.215,3.2149,0,3.2082,3.2081,3.208,3.207,3.207,3.2071,3.2071,3.1993,3.1991,3.1988,0,0,0,0,0,0,0,0,0,0,0,0,0,3.2264,3.2262,3.215,3.2149,3.2148,3.2082,3.2081,3.208,3.2069,3.207,3.2071,3.2072,3.1994,3.1991,3.1988,0,0,0,0,0,0,0,0,0,0,0,0,0,3.2206,3.2261,3.215,3.2135,3.2133,3.2082,3.2081,3.2079,3.2069,3.207,3.2071,3.2072,3.1995,3.1991,3.1988,3.1944,0,0,3.1975,3.1974,0,0,0,0,0,0,0,0,3.221,3.2202,3.2138,3.2136,3.2134,3.2085,3.2092,3.2034,3.2069,3.2093,3.2071,3.2073,3.2023,3.2016,3.2001,3.194,3.1937,3.1975,3.1973,3.1971,3.197,0,0,0,0,0,0,0,3.2214,3.2205,3.2122,3.2137,3.2134,3.2129,3.2122,3.2081,3.2053,3.2091,3.209,3.2083,3.2022,3.2005,3.1999,3.1936,3.1975,3.1971,3.1969,3.1967,3.1835,3.1833,0,0,0,0,0,0,3.2221,3.2209,3.2125,3.212,3.2175,3.2127,3.2119,3.21,3.2054,3.2048,3.2082,3.2083,3.2012,3.2004,3.1997,3.1943,3.1971,3.1967,3.1965,3.1836,3.1834,3.1833,0,0,0,0,0,0,3.2224,3.2214,3.2127,3.2164,3.2153,3.2124,3.2102,3.2098,3.2082,3.2047,3.2041,3.2071,3.2012,3.2002,3.1958,3.194,3.1965,3.1962,3.1837,3.1835,3.1834,3.1834,0,0,0,0,0,0,3.2227,3.2215,3.22,3.2164,3.2151,3.2092,3.2101,3.2096,3.2076,3.2076,3.2035,3.2029,3.2012,3.1964,3.1954,3.1935,3.1959,3.1838,3.1836,3.1834,3.1835,3.1832,3.183,0,0,0,0,0,3.2231,3.2201,3.2199,3.2189,3.2132,3.2091,3.2083,3.2067,3.2074,3.2058,3.2035,3.203,3.1943,3.1959,3.1948,3.1927,3.1839,3.1837,3.1834,3.1837,3.1833,3.183,0,0,0,0,0,0,3.2232,3.2196,3.2194,3.2151,3.2125,3.2089,3.2068,3.2063,3.2032,3.2033,3.2011,3.2002,3.1958,3.1938,3.1956,3.1882,3.1892,3.1887,3.1897,3.1894,3.1891,3.1896,3.1955,0,0,0,0,0,3.2228,3.22,3.2169,3.2134,3.2121,3.2097,3.2078,3.2068,3.2039,3.2026,3.2001,3.197,3.1936,3.1913,3.188,3.1832,3.1823,3.1812,3.181,3.1808,3.1804,3.1777,3.1772,3.1825,3.1825,3.1825,0,0,3.2218,3.2195,3.2178,3.2134,3.2112,3.2082,3.2087,3.2055,3.2031,3.202,3.1978,3.1958,3.1922,3.1876,3.1854,3.1857,3.1787,3.1805,3.1803,3.18,3.1774,3.1769,3.1764,3.1823,3.1823,3.1824,0,0,3.2184,3.2165,3.2134,3.2113,3.2081,3.2065,3.2057,3.2023,3.201,3.1967,3.1959,3.1929,3.187,3.1845,3.1825,3.1783,3.1776,3.1772,3.1758,3.1732,3.1727,3.1724,3.1708,3.1703,3.1768,3.1768,3.1768,0,3.2175,3.2132,3.2118,3.2087,3.2067,3.2059,3.2026,3.2005,3.1962,3.1948,3.1953,3.188,3.1855,3.1803,3.1793,3.1777,3.1766,3.1776,3.173,3.1726,3.1722,3.1707,3.1701,3.1768,3.1768,3.1768,3.1768,0,3.2122,3.2092,3.2071,3.2033,3.2011,3.1979,3.1958,3.1937,3.1928,3.1911,3.1867,3.1837,3.1798,3.1784,3.1774,3.173,3.1734,3.1735,3.1743,3.1717,3.1702,3.1696,3.1767,3.1767,3.1767,3.1767,0,0,3.2087,3.2044,3.2036,3.2019,3.1983,3.1958,3.1925,3.1889,3.1871,3.1842,3.1812,3.1764,3.1765,3.1741,3.1728,3.1706,3.1674,3.1709,3.1708,3.1704,3.1623,3.1623,3.1617,3.167,3.1669,3.1668,3.1626,0,3.2049,3.1994,3.198,3.1931,3.1903,3.1894,3.1865,3.1839,3.1822,3.1793,3.1773,3.1739,3.1743,3.1729,3.1706,3.1683,3.1657,3.1685,3.164,3.1639,3.165,3.1609,3.1609,3.1571,3.162,3.1619,3.1619,0,3.1998,3.1971,3.1921,3.1889,3.1877,3.1851,3.1817,3.1791,3.176,3.1749,3.1724,3.1713,3.1676,3.1687,3.1635,3.1655,3.1635,3.1621,3.1619,3.1614,3.1627,3.1603,3.1558,3.1553,3.1609,3.161,3.1611,0,3.1978,3.1929,3.1892,3.1878,3.184,3.1822,3.1805,3.1776,3.1755,3.1724,3.171,3.1675,3.1655,3.1626,3.1606,3.1616,3.1555,3.1565,3.1543,3.1544,3.1531,3.1532,3.1483,3.1518,3.1518,3.1518,3.1519,0,3.1938,3.1907,3.1883,3.186,3.1825,3.1809,3.1773,3.1755,3.1729,3.1701,3.169,3.1664,3.1639,3.1608,3.1591,3.155,3.1541,3.153,3.1525,3.1531,3.1532,3.1518,3.152,3.1517,3.1517,3.1518,3.1518,0,3.1909,3.1892,3.1852,3.182,3.1811,3.1787,3.1758,3.1735,3.1718,3.1683,3.1673,3.1645,3.1609,3.1586,3.1538,3.1527,3.1482,3.1479,3.1494,3.1492,3.1472,3.1474,3.1411,3.1402,3.1444,3.1444,3.1443,0,3.1885,3.1862,3.1828,3.1811,3.1794,3.1765,3.1745,3.1727,3.1706,3.1669,3.165,3.1613,3.1583,3.1524,3.1498,3.1462,3.1457,3.1438,3.1452,3.1458,3.1457,3.1459,3.1456,3.1436,3.1435,3.1435,3.1435,0,3.1843,3.1836,3.1809,3.1779,3.1756,3.173,3.1705,3.169,3.1667,3.1643,3.1608,3.1585,3.1538,3.1501,3.1462,3.1441,3.1433,3.1431,3.1424,3.1429,3.1439,3.1433,3.1488,3.1432,3.1432,3.1433,3.1433,3.1433,3.1816,3.1795,3.1769,3.1739,3.1719,3.1695,3.1672,3.1653,3.1624,3.1586,3.1576,3.1539,3.1507,3.1455,3.1434,3.1402,3.1405,3.1395,3.1392,3.139,3.139,3.1444,3.1395,3.1395,3.1395,3.1395,3.1395,0,3.1774,3.1758,3.173,3.1696,3.1672,3.167,3.1641,3.162,3.1589,3.1561,3.1533,3.1491,3.1455,3.1427,3.139,3.137,3.1365,3.1361,3.1362,3.1357,3.139,3.14,3.1365,3.1365,3.1365,3.1365,3.1365,3.1365,3.175,3.1715,3.1705,3.1658,3.164,3.1606,3.159,3.1567,3.1546,3.1501,3.1472,3.1455,3.1427,3.1388,3.1354,3.1346,3.1333,3.1329,3.1321,3.1352,3.1355,3.1358,3.1367,3.1326,3.1326,3.129,3.129,3.129]}]]